Universal City, TX

6:10 AM CDT on August 30, 2016 (GMT -0500)
Randolph Air Force Base

Weather History for KRND - December, 2011

Change the Weather History Date:

Monday, December 19, 2011

  Actual Average Record
Temperature  
Mean Temperature 64 °F -  
Max Temperature 72 °F 59 °F 82 °F (2012)
Min Temperature 57 °F 38 °F 17 °F (1996)
Growing Degree Days 14 (Base 50)    
Moisture  
Dew Point 61 °F    
Average Humidity 96    
Maximum Humidity 100    
Minimum Humidity 71    
Precipitation  
Precipitation 0.15 in - - ()
Sea Level Pressure  
Sea Level Pressure 29.89 in    
Wind  
Wind Speed 11 mph (SE)    
Max Wind Speed 25 mph    
Max Gust Speed 38 mph    
Visibility 6 miles    
Events Rain    
Averages and records for this station are not official NWS values.
T = Trace of Precipitation, MM = Missing Value Source: NWS Daily Summary

Daily Weather History Graph

Daily Weather History Graph

Search for Another Location

Airport or City:

Trip Planner

Search our weather history database for the weather conditions in past years. The results will help you decide how hot, cold, wet, or windy it might be!

Date:

Astronomy

Dec. 19, 2011 Rise Set
Actual Time 7:22 AM CST 5:37 PM CST
Civil Twilight 6:56 AM CST 6:04 PM CST
Nautical Twilight 6:26 AM CST 6:33 PM CST
Astronomical Twilight 5:57 AM CST 7:02 PM CST
Moon 1:50 AM CST (12/19) 1:23 PM CST (12/19)
Length of Visible Light 11h 07m
Length of Day
10h 15m
Waning Crescent, 31% of the Moon is Illuminated
Dec 19
Waning Crescent
Dec 24
New
Jan 1
First Quarter
Jan 9
Full
Jan 16
Last Quarter

Hourly Weather History & Observations

Time (CST) Temp. Dew Point Humidity Pressure Visibility Wind Dir Wind Speed Gust Speed Precip Events Conditions
12:14 AM 57.2 °F 57.2 °F 100% 30.06 in 7.0 mi ESE 8.1 mph - N/A   Overcast
12:21 AM 57.2 °F 57.2 °F 100% 30.05 in 7.0 mi East 8.1 mph - N/A Rain Light Rain
12:27 AM 57.2 °F 57.2 °F 100% 30.04 in 7.0 mi East 10.4 mph - N/A Rain Light Rain
12:37 AM 57.2 °F 57.2 °F 100% 30.04 in 5.0 mi East 8.1 mph - N/A Rain Light Rain
12:39 AM 57.2 °F 57.2 °F 100% 30.03 in 5.0 mi East 9.2 mph - N/A Rain Light Rain
12:40 AM 57.2 °F 57.2 °F 100% 30.03 in 5.0 mi East 8.1 mph - N/A Rain Light Rain
12:43 AM 57.2 °F 57.2 °F 100% 30.03 in 6.0 mi East 8.1 mph - N/A   Overcast
12:53 AM 57.2 °F 57.2 °F 100% 30.02 in 5.0 mi ESE 10.4 mph - N/A   Overcast
12:54 AM 57.2 °F 57.2 °F 100% 30.02 in 5.0 mi ESE 10.4 mph - N/A   Overcast
1:00 AM 57.2 °F 57.2 °F 100% 30.02 in 5.0 mi ESE 8.1 mph - N/A   Light Drizzle
1:03 AM 57.2 °F 57.2 °F 100% 30.01 in 5.0 mi ESE 10.4 mph - N/A   Overcast
1:17 AM 57.2 °F 57.2 °F 100% 30.01 in 6.0 mi ESE 9.2 mph - N/A   Overcast
1:19 AM 57.2 °F 57.2 °F 100% 30.01 in 6.0 mi ESE 9.2 mph - N/A   Overcast
1:44 AM 57.2 °F 57.2 °F 100% 29.99 in 8.0 mi ESE 10.4 mph - N/A   Overcast
1:50 AM 57.2 °F 57.2 °F 100% 29.98 in 5.0 mi ESE 10.4 mph - N/A   Overcast
1:52 AM 59.0 °F 57.2 °F 94% 29.98 in 4.0 mi ESE 11.5 mph - N/A   Overcast
1:54 AM 59.0 °F 57.2 °F 94% 29.98 in 4.0 mi ESE 11.5 mph - N/A   Overcast
2:01 AM 59.0 °F 57.2 °F 94% 29.97 in 3.0 mi ESE 10.4 mph - N/A   Light Drizzle
2:10 AM 59.0 °F 57.2 °F 94% 29.96 in 3.0 mi ESE 11.5 mph - N/A   Light Drizzle
2:16 AM 59.0 °F 57.2 °F 94% 29.96 in 3.0 mi ESE 11.5 mph - N/A   Light Drizzle
2:24 AM 59.0 °F 57.2 °F 94% 29.96 in 4.0 mi ESE 10.4 mph - N/A   Light Drizzle
2:30 AM 59.0 °F 59.0 °F 100% 29.95 in 4.0 mi ESE 10.4 mph - N/A   Overcast
2:44 AM 59.0 °F 59.0 °F 100% 29.94 in 4.0 mi ESE 8.1 mph - N/A   Overcast
2:46 AM 59.0 °F 59.0 °F 100% 29.94 in 4.0 mi ESE 9.2 mph - N/A   Overcast
2:47 AM 59.0 °F 59.0 °F 100% 29.94 in 5.0 mi ESE 9.2 mph - N/A   Overcast
2:53 AM 59.0 °F 59.0 °F 100% 29.94 in 5.0 mi ESE 10.4 mph - N/A   Light Drizzle
2:55 AM 58.5 °F 58.3 °F 99% 29.94 in 4.0 mi ESE 8.1 mph - 0.01 in   Light Drizzle
2:56 AM 59.0 °F 59.0 °F 100% 29.94 in 4.0 mi ESE 9.2 mph - N/A   Light Drizzle
3:00 AM 59.0 °F 59.0 °F 100% 29.94 in 3.0 mi ESE 8.1 mph - N/A   Light Drizzle
3:01 AM 59.0 °F 59.0 °F 100% 29.94 in 3.0 mi ESE 9.2 mph - N/A   Light Drizzle
3:02 AM 59.0 °F 59.0 °F 100% 29.94 in 3.0 mi ESE 9.2 mph - N/A   Light Drizzle
3:03 AM 59.0 °F 59.0 °F 100% 29.93 in 3.0 mi ESE 10.4 mph - N/A   Light Drizzle
3:15 AM 59.0 °F 59.0 °F 100% 29.93 in 3.0 mi ESE 10.4 mph - N/A Rain Light Rain
3:38 AM 59.0 °F 59.0 °F 100% 29.91 in 4.0 mi ESE 9.2 mph - N/A   Light Drizzle
3:40 AM 59.0 °F 59.0 °F 100% 29.91 in 4.0 mi ESE 9.2 mph - N/A   Light Drizzle
3:41 AM 59.0 °F 59.0 °F 100% 29.91 in 5.0 mi ESE 10.4 mph - N/A   Light Drizzle
3:44 AM 59.0 °F 59.0 °F 100% 29.91 in 5.0 mi ESE 10.4 mph - N/A   Light Drizzle
3:50 AM 59.0 °F 59.0 °F 100% 29.91 in 5.0 mi ESE 9.2 mph - N/A Rain Light Rain
3:51 AM 59.0 °F 59.0 °F 100% 29.91 in 4.0 mi SE 9.2 mph - N/A Rain Light Rain
3:52 AM 59.0 °F 59.0 °F 100% 29.91 in 5.0 mi SE 10.4 mph - N/A Rain Light Rain
3:55 AM 60.1 °F 60.1 °F 100% 29.91 in 5.0 mi SE 10.4 mph - 0.03 in Rain Light Rain
3:57 AM 60.8 °F 60.8 °F 100% 29.91 in 6.0 mi SE 11.5 mph - N/A Rain Light Rain
4:03 AM 60.8 °F 60.8 °F 100% 29.91 in 8.0 mi SE 10.4 mph - N/A   Overcast
4:06 AM 60.8 °F 60.8 °F 100% 29.90 in 7.0 mi SE 13.8 mph - N/A   Light Drizzle
4:13 AM 60.8 °F 60.8 °F 100% 29.90 in 5.0 mi SE 15.0 mph - N/A   Light Drizzle
4:14 AM 60.8 °F 60.8 °F 100% 29.90 in 5.0 mi SE 12.7 mph - N/A   Light Drizzle
4:23 AM 60.8 °F 60.8 °F 100% 29.90 in 5.0 mi SE 11.5 mph - N/A   Light Drizzle
4:27 AM 62.6 °F 62.6 °F 100% 29.90 in 6.0 mi SE 12.7 mph - N/A   Overcast
4:34 AM 62.6 °F 62.6 °F 100% 29.90 in 6.0 mi SE 13.8 mph - N/A   Overcast
4:46 AM 62.6 °F 62.6 °F 100% 29.89 in 6.0 mi SE 15.0 mph - N/A   Light Drizzle
4:48 AM 62.6 °F 62.6 °F 100% 29.89 in 5.0 mi SE 15.0 mph - N/A   Light Drizzle
4:50 AM 62.6 °F 62.6 °F 100% 29.89 in 4.0 mi SE 13.8 mph - N/A   Light Drizzle
4:53 AM 62.6 °F 62.6 °F 100% 29.88 in 4.0 mi SE 12.7 mph - N/A Rain Light Rain
4:55 AM 62.1 °F 62.1 °F 100% 29.88 in 4.0 mi SE 12.7 mph - 0.02 in Rain Light Rain
4:58 AM 62.6 °F 62.6 °F 100% 29.88 in 4.0 mi SE 12.7 mph - N/A Rain Light Rain
4:59 AM 62.6 °F 62.6 °F 100% 29.88 in 5.0 mi SE 12.7 mph - N/A Rain Light Rain
5:11 AM 62.6 °F 62.6 °F 100% 29.88 in 5.0 mi SE 12.7 mph - N/A   Light Drizzle
5:12 AM 62.6 °F 62.6 °F 100% 29.88 in 4.0 mi SE 12.7 mph - N/A   Light Drizzle
5:17 AM 62.6 °F 62.6 °F 100% 29.88 in 4.0 mi SE 12.7 mph - N/A Rain Light Rain
5:19 AM 62.6 °F 62.6 °F 100% 29.88 in 5.0 mi SE 11.5 mph - N/A Rain Light Rain
5:31 AM 62.6 °F 62.6 °F 100% 29.87 in 5.0 mi SE 12.7 mph - N/A Rain Light Rain
5:32 AM 62.6 °F 62.6 °F 100% 29.87 in 4.0 mi SE 12.7 mph - N/A Rain Light Rain
5:38 AM 62.6 °F 62.6 °F 100% 29.87 in 4.0 mi SE 12.7 mph - N/A   Light Drizzle
5:39 AM 62.6 °F 62.6 °F 100% 29.87 in 3.0 mi SE 12.7 mph - N/A Rain Light Rain
5:55 AM 62.2 °F 62.2 °F 100% 29.86 in 3.0 mi SE 12.7 mph - 0.02 in   Light Drizzle
5:59 AM 62.6 °F 62.6 °F 100% 29.86 in 3.0 mi SE 13.8 mph - N/A   Light Drizzle
6:05 AM 62.6 °F 62.6 °F 100% 29.86 in 4.0 mi ESE 12.7 mph - N/A   Light Drizzle
6:07 AM 62.6 °F 62.6 °F 100% 29.86 in 5.0 mi ESE 11.5 mph - N/A   Light Drizzle
6:23 AM 62.6 °F 62.6 °F 100% 29.86 in 7.0 mi ESE 15.0 mph 19.6 mph N/A   Overcast
6:31 AM 62.6 °F 62.6 °F 100% 29.87 in 10.0 mi ESE 10.4 mph 19.6 mph N/A   Overcast
6:37 AM 62.6 °F 62.6 °F 100% 29.87 in 8.0 mi SE 8.1 mph - N/A   Light Drizzle
6:42 AM 62.6 °F 62.6 °F 100% 29.87 in 4.0 mi SE 8.1 mph - N/A   Light Drizzle
6:46 AM 62.6 °F 62.6 °F 100% 29.87 in 3.0 mi SE 6.9 mph - N/A   Light Drizzle
6:54 AM 62.6 °F 62.6 °F 100% 29.87 in 3.0 mi SE 8.1 mph - N/A   Light Drizzle
6:55 AM 62.8 °F 62.8 °F 100% 29.87 in 3.0 mi SE 8.1 mph - 0.02 in   Light Drizzle
7:16 AM 62.6 °F 62.6 °F 100% 29.87 in 5.0 mi SE 9.2 mph - N/A Rain Light Rain
7:19 AM 62.6 °F 62.6 °F 100% 29.87 in 6.0 mi SE 10.4 mph - N/A   Overcast
7:22 AM 62.6 °F 62.6 °F 100% 29.87 in 6.0 mi SE 11.5 mph - N/A   Light Drizzle
7:25 AM 62.6 °F 62.6 °F 100% 29.87 in 4.0 mi SE 11.5 mph - N/A   Light Drizzle
7:29 AM 62.6 °F 62.6 °F 100% 29.88 in 2.0 mi SE 9.2 mph - N/A   Light Drizzle
7:42 AM 64.4 °F 64.4 °F 100% 29.88 in 1.8 mi SE 12.7 mph - N/A Rain Light Rain
7:49 AM 64.4 °F 64.4 °F 100% 29.86 in 2.0 mi SE 12.7 mph - N/A Rain Light Rain
7:55 AM 63.9 °F 63.9 °F 100% 29.87 in 3.0 mi SSE 13.8 mph - 0.04 in Rain Light Rain
8:06 AM 64.4 °F 64.4 °F 100% 29.87 in 2.5 mi SSE 16.1 mph - N/A   Light Drizzle
8:13 AM 64.4 °F 64.4 °F 100% 29.86 in 5.0 mi SSE 16.1 mph 21.9 mph N/A   Light Drizzle
8:16 AM 64.4 °F 64.4 °F 100% 29.87 in 9.0 mi SSE 15.0 mph 21.9 mph N/A   Overcast
8:24 AM 64.4 °F 64.4 °F 100% 29.86 in 10.0 mi SSE 15.0 mph - N/A   Overcast
8:38 AM 64.4 °F 64.4 °F 100% 29.86 in 10.0 mi SSE 13.8 mph - N/A   Overcast
8:48 AM 64.4 °F 64.4 °F 100% 29.86 in 10.0 mi SSE 15.0 mph - N/A   Overcast
8:55 AM 65.3 °F 65.3 °F 100% 29.86 in 10.0 mi SSE 19.6 mph 25.3 mph 0.01 in   Overcast
9:55 AM 66.6 °F 66.2 °F 99% 29.85 in 10.0 mi SSE 20.7 mph 27.6 mph N/A   Overcast
10:06 AM 66.2 °F 66.2 °F 100% 29.85 in 10.0 mi South 15.0 mph 24.2 mph N/A   Overcast
10:17 AM 66.2 °F 66.2 °F 100% 29.85 in 10.0 mi South 17.3 mph 23.0 mph N/A   Overcast
10:44 AM 68.0 °F 66.2 °F 94% 29.84 in 10.0 mi South 18.4 mph - N/A   Overcast
10:55 AM 68.5 °F 66.4 °F 93% 29.83 in 10.0 mi SSE 19.6 mph 26.5 mph N/A   Overcast
11:31 AM 69.8 °F 64.4 °F 83% 29.82 in 10.0 mi South 25.3 mph 38.0 mph N/A   Mostly Cloudy
11:33 AM 69.8 °F 64.4 °F 83% 29.82 in 10.0 mi South 25.3 mph 38.0 mph N/A   Mostly Cloudy
11:39 AM 71.6 °F 64.4 °F 78% 29.80 in 10.0 mi South 23.0 mph 38.0 mph N/A   Mostly Cloudy
11:43 AM 71.6 °F 64.4 °F 78% 29.80 in 10.0 mi South 24.2 mph 34.5 mph N/A   Overcast
11:55 AM 72.1 °F 64.6 °F 77% 29.80 in 10.0 mi South 23.0 mph 32.2 mph N/A   Mostly Cloudy
11:58 AM 71.6 °F 64.4 °F 78% 29.80 in 10.0 mi South 20.7 mph 32.2 mph N/A   Mostly Cloudy
12:07 PM 71.6 °F 64.4 °F 78% 29.80 in 10.0 mi South 21.9 mph 35.7 mph N/A   Overcast
12:34 PM 71.6 °F 64.4 °F 78% 29.80 in 10.0 mi South 18.4 mph 32.2 mph N/A   Mostly Cloudy
12:41 PM 71.6 °F 64.4 °F 78% 29.79 in 10.0 mi South 21.9 mph 27.6 mph N/A   Overcast
12:55 PM 72.0 °F 63.9 °F 76% 29.78 in 10.0 mi South 19.6 mph 27.6 mph N/A   Overcast
1:43 PM 71.6 °F 64.4 °F 78% 29.78 in 10.0 mi South 12.7 mph - N/A   Overcast
1:55 PM 72.9 °F 62.8 °F 71% 29.76 in 10.0 mi South 12.7 mph 23.0 mph N/A   Overcast
2:55 PM 71.4 °F 63.0 °F 75% 29.75 in 10.0 mi West 18.4 mph - N/A   Overcast
3:04 PM 69.8 °F 62.6 °F 78% 29.75 in 10.0 mi West 12.7 mph - N/A   Overcast
3:55 PM 68.2 °F 60.4 °F 76% 29.76 in 10.0 mi WNW 11.5 mph - N/A   Overcast
4:55 PM 67.5 °F 58.8 °F 74% 29.78 in 10.0 mi WNW 10.4 mph - N/A   Overcast
5:55 PM 66.6 °F 58.1 °F 74% 29.79 in 10.0 mi West 6.9 mph - N/A   Overcast
6:55 PM 65.7 °F 58.3 °F 77% 29.81 in 10.0 mi Calm Calm - N/A   Overcast
7:55 PM 63.5 °F 58.3 °F 83% 29.83 in 10.0 mi Calm Calm - N/A   Overcast
8:55 PM 62.6 °F 59.0 °F 88% 29.85 in 10.0 mi Calm Calm - N/A   Overcast
9:49 PM 62.6 °F 59.0 °F 88% 29.86 in 10.0 mi SSE 3.5 mph - N/A   Light Drizzle
9:55 PM 62.4 °F 59.5 °F 90% 29.86 in 10.0 mi Calm Calm - 0.00 in   Light Drizzle
9:58 PM 62.6 °F 59.0 °F 88% 29.86 in 10.0 mi Calm Calm - N/A   Overcast
10:55 PM 59.5 °F 58.1 °F 95% 29.88 in 10.0 mi Calm Calm - 0.00 in   Scattered Clouds
11:55 PM 57.7 °F 57.4 °F 99% 29.88 in 10.0 mi NW 5.8 mph - N/A   Partly Cloudy